Location: El Corozo
(10.5833°N, 66.9667°W)
Time: 12:31:48
(UTC+00:00)

Okean 1 Rocket - Pass Details

Date: 23 May 2024
Orbit: 602 x 631 km, 82.5° (Epoch: 24 June)

Event Time Altitude Azimuth Distance (km) Brightness Sun altitude
Rises 08:15:27 0° 353° (N) 2,841 6.7 -25.2°
Reaches altitude 10° 08:17:39 10° 351° (N) 1,939 5.8 -24.8°
Enters shadow 08:21:08 57° 331° (NNW) 710 3.2 -24.0°
